Time,TemperatureF,DewpointF,PressureIn,WindDirection,WindDirectionDegrees,WindSpeedMPH,WindSpeedGustMPH,Humidity,HourlyPrecipIn,Conditions,Clouds,dailyrainin,SoftwareType,DateUTC
2013-05-17 00:03:00,66.0,55.0,-100.00,SW,215,9.0,12.0,68,0.04,,,-99.99,,2013-05-17 05:03:00,
2013-05-17 00:14:00,65.0,57.0,-100.00,SSW,200,7.0,12.0,76,0.10,,,-99.99,,2013-05-17 05:14:00,
2013-05-17 00:22:00,64.0,59.0,-100.00,South,170,6.0,11.0,82,0.06,,,-99.99,,2013-05-17 05:22:00,
2013-05-17 00:32:00,63.0,59.0,-100.00,SE,140,2.0,4.0,86,0.08,,,-99.99,,2013-05-17 05:32:00,
2013-05-17 00:42:00,63.0,60.0,-100.00,North,0,3.0,6.0,89,0.04,,,-99.99,,2013-05-17 05:42:00,
2013-05-17 00:52:00,63.0,60.0,-100.00,NE,35,1.0,4.0,90,0.03,,,-99.99,,2013-05-17 05:52:00,
2013-05-17 01:02:00,62.0,60.0,-100.00,NE,45,2.0,2.0,91,0.01,,,-99.99,,2013-05-17 06:02:00,
2013-05-17 01:11:00,62.0,60.0,-100.00,NE,35,1.0,2.0,92,0.03,,,-99.99,,2013-05-17 06:11:00,
2013-05-17 01:21:00,62.0,61.0,-100.00,NE,55,6.0,7.0,93,0.01,,,-99.99,,2013-05-17 06:21:00,
2013-05-17 01:32:00,62.0,61.0,-100.00,NE,55,6.0,7.0,93,0.01,,,-99.99,,2013-05-17 06:32:00,
2013-05-17 01:42:00,62.0,59.0,-100.00,NE,50,4.0,9.0,90,0.00,,,-99.99,,2013-05-17 06:42:00,
2013-05-17 01:51:00,63.0,59.0,-100.00,ESE,115,2.0,4.0,87,0.00,,,-99.99,,2013-05-17 06:51:00,
2013-05-17 02:02:00,63.0,59.0,-100.00,ESE,120,5.0,7.0,85,0.00,,,-99.99,,2013-05-17 07:02:00,
2013-05-17 02:11:00,63.0,59.0,-100.00,ESE,120,5.0,7.0,85,0.00,,,-99.99,,2013-05-17 07:11:00,
2013-05-17 02:21:00,63.0,59.0,-100.00,ESE,120,5.0,7.0,85,0.00,,,-99.99,,2013-05-17 07:21:00,
2013-05-17 02:32:00,63.0,58.0,-100.00,ENE,75,3.0,-999.0,84,0.00,,,-99.99,,2013-05-17 07:32:00,
2013-05-17 02:43:00,63.0,58.0,-100.00,East,85,3.0,4.0,84,0.00,,,-99.99,,2013-05-17 07:43:00,
2013-05-17 02:53:00,63.0,58.0,-100.00,East,85,4.0,8.0,83,0.00,,,-99.99,,2013-05-17 07:53:00,
2013-05-17 03:02:00,64.0,57.0,-100.00,ESE,115,4.0,7.0,79,0.00,,,-99.99,,2013-05-17 08:02:00,
2013-05-17 03:12:00,64.0,56.0,-100.00,ENE,65,6.0,11.0,76,0.00,,,-99.99,,2013-05-17 08:12:00,
2013-05-17 03:22:00,64.0,56.0,-100.00,East,100,6.0,12.0,74,0.00,,,-99.99,,2013-05-17 08:22:00,
2013-05-17 03:33:00,65.0,56.0,-100.00,East,100,9.0,12.0,73,0.00,,,-99.99,,2013-05-17 08:33:00,
2013-05-17 03:42:00,64.0,56.0,-100.00,East,100,9.0,15.0,75,0.00,,,-99.99,,2013-05-17 08:42:00,
2013-05-17 03:51:00,63.0,56.0,-100.00,ESE,105,7.0,12.0,75,0.00,,,-99.99,,2013-05-17 08:51:00,
2013-05-17 04:02:00,63.0,56.0,-100.00,ESE,105,8.0,15.0,77,0.00,,,-99.99,,2013-05-17 09:02:00,
2013-05-17 04:12:00,62.0,57.0,-100.00,ESE,110,7.0,12.0,81,0.00,,,-99.99,,2013-05-17 09:12:00,
2013-05-17 04:22:00,62.0,58.0,-100.00,ESE,105,9.0,13.0,85,0.00,,,-99.99,,2013-05-17 09:22:00,
2013-05-17 04:33:00,62.0,58.0,-100.00,ESE,110,7.0,14.0,87,0.00,,,-99.99,,2013-05-17 09:33:00,
2013-05-17 04:42:00,62.0,58.0,-100.00,ESE,110,7.0,16.0,87,0.00,,,-99.99,,2013-05-17 09:42:00,
2013-05-17 04:53:00,61.0,58.0,-100.00,East,95,7.0,14.0,87,0.00,,,-99.99,,2013-05-17 09:53:00,
2013-05-17 05:03:00,61.0,57.0,-100.00,East,90,7.0,14.0,86,0.00,,,-99.99,,2013-05-17 10:03:00,
2013-05-17 05:12:00,60.0,56.0,-100.00,East,80,4.0,16.0,84,0.00,,,-99.99,,2013-05-17 10:12:00,
2013-05-17 05:23:00,60.0,55.0,-100.00,East,90,5.0,13.0,82,0.00,,,-99.99,,2013-05-17 10:23:00,
2013-05-17 05:33:00,60.0,54.0,-100.00,NNE,30,5.0,11.0,82,0.00,,,-99.99,,2013-05-17 10:33:00,
2013-05-17 05:42:00,59.0,54.0,-100.00,NE,55,7.0,11.0,82,0.00,,,-99.99,,2013-05-17 10:42:00,
2013-05-17 05:53:00,59.0,54.0,-100.00,NE,45,7.0,13.0,83,0.00,,,-99.99,,2013-05-17 10:53:00,
2013-05-17 06:02:00,60.0,56.0,-100.00,NNW,340,9.0,18.0,87,0.00,,,-99.99,,2013-05-17 11:02:00,
2013-05-17 06:12:00,59.0,56.0,-100.00,North,0,6.0,14.0,90,0.00,,,-99.99,,2013-05-17 11:12:00,
2013-05-17 06:22:00,58.0,56.0,-100.00,NNE,15,8.0,14.0,91,0.00,,,-99.99,,2013-05-17 11:22:00,
2013-05-17 06:34:00,58.0,55.0,-100.00,NE,50,12.0,16.0,92,0.00,,,-99.99,,2013-05-17 11:34:00,
2013-05-17 06:42:00,57.0,55.0,-100.00,NE,40,8.0,17.0,92,0.00,,,-99.99,,2013-05-17 11:42:00,
2013-05-17 06:53:00,57.0,55.0,-100.00,NE,40,6.0,12.0,92,0.00,,,-99.99,,2013-05-17 11:53:00,
2013-05-17 07:03:00,56.0,54.0,-100.00,North,5,7.0,14.0,92,0.03,,,-99.99,,2013-05-17 12:03:00,
2013-05-17 07:12:00,56.0,54.0,-100.00,North,0,9.0,15.0,92,0.00,,,-99.99,,2013-05-17 12:12:00,
2013-05-17 07:23:00,55.0,53.0,-100.00,NE,55,15.0,21.0,92,0.00,,,-99.99,,2013-05-17 12:23:00,
2013-05-17 07:32:00,55.0,53.0,-100.00,ENE,60,14.0,24.0,92,0.00,,,-99.99,,2013-05-17 12:32:00,
2013-05-17 07:43:00,54.0,52.0,-100.00,ENE,60,15.0,23.0,92,0.00,,,-99.99,,2013-05-17 12:43:00,
2013-05-17 07:53:00,54.0,52.0,-100.00,ENE,60,11.0,20.0,93,0.00,,,-99.99,,2013-05-17 12:53:00,
2013-05-17 08:03:00,54.0,52.0,-100.00,ENE,65,9.0,20.0,93,0.00,,,-99.99,,2013-05-17 13:03:00,
2013-05-17 08:12:00,54.0,52.0,-100.00,ENE,70,6.0,16.0,93,0.00,,,-99.99,,2013-05-17 13:12:00,
2013-05-17 08:23:00,54.0,52.0,-100.00,ENE,70,7.0,14.0,93,0.00,,,-99.99,,2013-05-17 13:23:00,
2013-05-17 08:33:00,54.0,52.0,-100.00,East,90,7.0,16.0,92,0.00,,,-99.99,,2013-05-17 13:33:00,
2013-05-17 08:42:00,55.0,52.0,-100.00,ESE,110,10.0,17.0,89,0.00,,,-99.99,,2013-05-17 13:42:00,
2013-05-17 08:52:00,55.0,51.0,-100.00,ESE,105,9.0,17.0,86,0.00,,,-99.99,,2013-05-17 13:52:00,
2013-05-17 09:02:00,56.0,51.0,-100.00,ESE,110,8.0,17.0,81,0.00,,,-99.99,,2013-05-17 14:02:00,
2013-05-17 09:13:00,57.0,50.0,-100.00,East,85,9.0,20.0,78,0.00,,,-99.99,,2013-05-17 14:13:00,
2013-05-17 09:22:00,58.0,51.0,-100.00,East,80,5.0,14.0,77,0.00,,,-99.99,,2013-05-17 14:22:00,
2013-05-17 09:34:00,58.0,51.0,-100.00,East,85,8.0,13.0,76,0.00,,,-99.99,,2013-05-17 14:34:00,
2013-05-17 09:43:00,58.0,51.0,-100.00,East,80,7.0,15.0,76,0.00,,,-99.99,,2013-05-17 14:43:00,
2013-05-17 09:53:00,59.0,51.0,-100.00,ESE,110,6.0,11.0,76,0.00,,,-99.99,,2013-05-17 14:53:00,
2013-05-17 10:03:00,59.0,52.0,-100.00,ENE,70,4.0,11.0,76,0.00,,,-99.99,,2013-05-17 15:03:00,
2013-05-17 10:14:00,60.0,52.0,-100.00,ENE,70,6.0,11.0,76,0.00,,,-99.99,,2013-05-17 15:14:00,
2013-05-17 10:25:00,60.0,51.0,-100.00,East,100,7.0,17.0,72,0.00,,,-99.99,,2013-05-17 15:25:00,
2013-05-17 10:37:00,60.0,51.0,-100.00,ESE,110,10.0,17.0,71,0.00,,,-99.99,,2013-05-17 15:37:00,
2013-05-17 10:47:00,60.0,51.0,-100.00,East,100,9.0,18.0,71,0.00,,,-99.99,,2013-05-17 15:47:00,
2013-05-17 10:56:00,60.0,52.0,-100.00,ESE,110,9.0,16.0,73,0.00,,,-99.99,,2013-05-17 15:56:00,
2013-05-17 11:07:00,61.0,52.0,-100.00,ESE,105,9.0,16.0,73,0.00,,,-99.99,,2013-05-17 16:07:00,
2013-05-17 11:13:00,62.0,53.0,-100.00,ESE,105,10.0,17.0,72,0.00,,,-99.99,,2013-05-17 16:13:00,
2013-05-17 11:26:00,62.0,54.0,-100.00,East,100,10.0,17.0,72,0.00,,,-99.99,,2013-05-17 16:26:00,
2013-05-17 11:37:00,63.0,54.0,-100.00,East,100,12.0,18.0,71,0.00,,,-99.99,,2013-05-17 16:37:00,
2013-05-17 11:49:00,64.0,54.0,-100.00,East,95,11.0,19.0,70,0.00,,,-99.99,,2013-05-17 16:49:00,
2013-05-17 11:56:00,66.0,56.0,-100.00,East,80,7.0,13.0,70,0.00,,,-99.99,,2013-05-17 16:56:00,
2013-05-17 12:08:00,68.0,57.0,-100.00,East,95,10.0,15.0,67,0.00,,,-99.99,,2013-05-17 17:08:00,
2013-05-17 12:18:00,68.0,57.0,-100.00,East,85,7.0,18.0,68,0.00,,,-99.99,,2013-05-17 17:18:00,
2013-05-17 12:30:00,68.0,57.0,-100.00,East,85,7.0,18.0,68,0.00,,,-99.99,,2013-05-17 17:30:00,
2013-05-17 12:40:00,68.0,-99.9,-100.00,East,85,7.0,18.0,68,0.00,,,-99.99,,2013-05-17 17:40:00,
2013-05-17 12:49:00,68.0,57.0,-100.00,East,85,7.0,18.0,68,0.00,,,-99.99,,2013-05-17 17:49:00,
2013-05-17 13:00:00,71.0,58.0,-100.00,East,100,9.0,18.0,63,0.00,,,-99.99,,2013-05-17 18:00:00,
2013-05-17 13:09:00,72.0,58.0,-100.00,SSE,155,6.0,14.0,61,0.00,,,-99.99,,2013-05-17 18:09:00,
2013-05-17 13:20:00,73.0,58.0,-100.00,East,100,9.0,15.0,59,0.00,,,-99.99,,2013-05-17 18:20:00,
2013-05-17 13:30:00,73.0,58.0,-100.00,East,100,9.0,15.0,59,0.00,,,-99.99,,2013-05-17 18:30:00,
2013-05-17 13:40:00,73.0,-99.9,-100.00,East,100,9.0,15.0,59,0.00,,,-99.99,,2013-05-17 18:40:00,
2013-05-17 13:50:00,-999.0,-99.9,-100.00,SE,135,7.0,13.0,56,0.00,,,-99.99,,2013-05-17 18:50:00,
2013-05-17 14:00:00,75.0,59.0,-100.00,SE,135,7.0,13.0,56,0.00,,,-99.99,,2013-05-17 19:00:00,
2013-05-17 14:10:00,75.0,59.0,-100.00,SE,135,7.0,13.0,56,0.00,,,-99.99,,2013-05-17 19:10:00,
2013-05-17 14:20:00,74.0,57.0,-100.00,SSE,150,9.0,12.0,55,0.00,,,-99.99,,2013-05-17 19:20:00,
2013-05-17 14:30:00,75.0,57.0,-100.00,ESE,110,7.0,16.0,53,0.00,,,-99.99,,2013-05-17 19:30:00,
2013-05-17 14:40:00,75.0,57.0,-100.00,ESE,110,7.0,16.0,53,0.00,,,-99.99,,2013-05-17 19:40:00,
2013-05-17 14:50:00,75.0,56.0,-100.00,ESE,120,7.0,13.0,52,0.00,,,-99.99,,2013-05-17 19:50:00,
2013-05-17 15:00:00,76.0,-99.9,-100.00,SE,145,8.0,11.0,50,0.00,,,-99.99,,2013-05-17 20:00:00,
2013-05-17 15:09:00,78.0,57.0,-100.00,ESE,110,7.0,12.0,48,0.00,,,-99.99,,2013-05-17 20:09:00,
2013-05-17 15:20:00,78.0,57.0,-100.00,ESE,110,7.0,12.0,48,0.00,,,-99.99,,2013-05-17 20:20:00,
2013-05-17 15:30:00,78.0,57.0,-100.00,SE,145,8.0,17.0,48,0.00,,,-99.99,,2013-05-17 20:30:00,
2013-05-17 15:40:00,78.0,57.0,-100.00,ESE,120,9.0,16.0,48,0.00,,,-99.99,,2013-05-17 20:40:00,
2013-05-17 15:50:00,79.0,57.0,-100.00,ESE,115,9.0,14.0,48,0.00,,,-99.99,,2013-05-17 20:50:00,
2013-05-17 15:58:00,77.0,57.0,-100.00,SE,140,6.0,13.0,48,0.00,,,-99.99,,2013-05-17 20:58:00,
2013-05-17 16:07:00,77.0,57.0,-100.00,SE,140,6.0,13.0,48,0.00,,,-99.99,,2013-05-17 21:07:00,
2013-05-17 16:17:00,76.0,57.0,-100.00,SE,145,6.0,16.0,52,0.00,,,-99.99,,2013-05-17 21:17:00,
2013-05-17 16:26:00,76.0,57.0,-100.00,SE,145,6.0,16.0,52,0.00,,,-99.99,,2013-05-17 21:26:00,
2013-05-17 16:39:00,76.0,56.0,-100.00,ESE,110,4.0,9.0,50,0.00,,,-99.99,,2013-05-17 21:39:00,
2013-05-17 16:49:00,76.0,56.0,-100.00,SE,135,5.0,10.0,50,0.00,,,-99.99,,2013-05-17 21:49:00,
2013-05-17 16:57:00,76.0,56.0,-100.00,SE,135,5.0,10.0,50,0.00,,,-99.99,,2013-05-17 21:57:00,
2013-05-17 17:07:00,76.0,56.0,-100.00,ESE,120,4.0,8.0,50,0.00,,,-99.99,,2013-05-17 22:07:00,
2013-05-17 17:17:00,76.0,56.0,-100.00,SE,125,3.0,6.0,50,0.00,,,-99.99,,2013-05-17 22:17:00,
2013-05-17 17:28:00,76.0,56.0,-100.00,SE,125,3.0,6.0,50,0.00,,,-99.99,,2013-05-17 22:28:00,
2013-05-17 17:38:00,76.0,56.0,-100.00,SE,125,3.0,6.0,50,0.00,,,-99.99,,2013-05-17 22:38:00,
2013-05-17 17:47:00,76.0,56.0,-100.00,SE,125,3.0,6.0,50,0.00,,,-99.99,,2013-05-17 22:47:00,
2013-05-17 17:54:00,76.0,56.0,-100.00,SE,125,3.0,6.0,50,0.00,,,-99.99,,2013-05-17 22:54:00,
2013-05-17 18:13:00,76.0,59.0,-100.00,SSE,155,6.0,11.0,54,0.00,,,-99.99,,2013-05-17 23:13:00,
2013-05-17 18:23:00,76.0,59.0,-100.00,SSE,155,6.0,11.0,54,0.00,,,-99.99,,2013-05-17 23:23:00,
2013-05-17 18:37:00,76.0,59.0,-100.00,SSE,155,6.0,11.0,54,0.00,,,-99.99,,2013-05-17 23:37:00,
2013-05-17 18:47:00,76.0,58.0,-100.00,ESE,120,9.0,12.0,52,0.00,,,-99.99,,2013-05-17 23:47:00,
2013-05-17 18:54:00,76.0,58.0,-100.00,SE,135,4.0,10.0,52,0.00,,,-99.99,,2013-05-17 23:54:00,
2013-05-17 19:02:00,76.0,58.0,-100.00,SE,145,6.0,7.0,52,0.00,,,-99.99,,2013-05-18 00:02:00,
2013-05-17 19:14:00,76.0,58.0,-100.00,SE,135,3.0,9.0,52,0.00,,,-99.99,,2013-05-18 00:14:00,
2013-05-17 19:21:00,76.0,58.0,-100.00,ESE,110,3.0,7.0,53,0.00,,,-99.99,,2013-05-18 00:21:00,
2013-05-17 19:33:00,76.0,58.0,-100.00,East,95,2.0,6.0,53,0.00,,,-99.99,,2013-05-18 00:33:00,
2013-05-17 19:44:00,76.0,58.0,-100.00,East,95,2.0,6.0,53,0.00,,,-99.99,,2013-05-18 00:44:00,
2013-05-17 19:54:00,76.0,58.0,-100.00,East,95,2.0,6.0,53,0.00,,,-99.99,,2013-05-18 00:54:00,
2013-05-17 20:02:00,76.0,58.0,-100.00,East,95,2.0,6.0,53,0.00,,,-99.99,,2013-05-18 01:02:00,
2013-05-17 20:13:00,76.0,58.0,-100.00,East,95,2.0,6.0,53,0.00,,,-99.99,,2013-05-18 01:13:00,
2013-05-17 20:24:00,69.0,61.0,-100.00,East,90,4.0,9.0,75,0.00,,,-99.99,,2013-05-18 01:24:00,
2013-05-17 20:32:00,69.0,61.0,-100.00,East,90,4.0,9.0,75,0.00,,,-99.99,,2013-05-18 01:32:00,
2013-05-17 20:43:00,68.0,62.0,-100.00,NE,55,5.0,10.0,79,0.00,,,-99.99,,2013-05-18 01:43:00,
2013-05-17 20:52:00,68.0,62.0,-100.00,NE,55,5.0,10.0,79,0.00,,,-99.99,,2013-05-18 01:52:00,
2013-05-17 21:02:00,68.0,62.0,-100.00,NE,55,5.0,10.0,79,0.00,,,-99.99,,2013-05-18 02:02:00,
2013-05-17 21:12:00,68.0,62.0,-100.00,NE,55,5.0,10.0,79,0.00,,,-99.99,,2013-05-18 02:12:00,
2013-05-17 21:22:00,67.0,62.0,-100.00,East,80,4.0,9.0,84,0.00,,,-99.99,,2013-05-18 02:22:00,
2013-05-17 21:32:00,67.0,62.0,-100.00,East,80,4.0,9.0,84,0.00,,,-99.99,,2013-05-18 02:32:00,
2013-05-17 21:43:00,67.0,62.0,-100.00,East,100,4.0,9.0,84,0.00,,,-99.99,,2013-05-18 02:43:00,
2013-05-17 21:54:00,67.0,62.0,-100.00,ESE,110,5.0,10.0,84,0.00,,,-99.99,,2013-05-18 02:54:00,
2013-05-17 22:02:00,67.0,62.0,-100.00,East,100,7.0,10.0,84,0.00,,,-99.99,,2013-05-18 03:02:00,
2013-05-17 22:12:00,67.0,62.0,-100.00,ESE,110,8.0,12.0,84,0.00,,,-99.99,,2013-05-18 03:12:00,
2013-05-17 22:22:00,66.0,61.0,-100.00,ESE,105,7.0,12.0,84,0.00,,,-99.99,,2013-05-18 03:22:00,
2013-05-17 22:32:00,66.0,61.0,-100.00,East,100,7.0,11.0,84,0.00,,,-99.99,,2013-05-18 03:32:00,
2013-05-17 22:43:00,66.0,61.0,-100.00,East,100,7.0,11.0,84,0.00,,,-99.99,,2013-05-18 03:43:00,
2013-05-17 22:53:00,65.0,61.0,-100.00,ESE,110,6.0,9.0,84,0.00,,,-99.99,,2013-05-18 03:53:00,
2013-05-17 23:02:00,65.0,61.0,-100.00,ESE,110,6.0,9.0,84,0.00,,,-99.99,,2013-05-18 04:02:00,
2013-05-17 23:12:00,65.0,60.0,-100.00,ESE,105,4.0,7.0,84,0.00,,,-99.99,,2013-05-18 04:12:00,
2013-05-17 23:23:00,65.0,60.0,-100.00,ESE,105,4.0,7.0,84,0.00,,,-99.99,,2013-05-18 04:23:00,
2013-05-17 23:33:00,65.0,59.0,-100.00,ESE,115,6.0,10.0,80,0.00,,,-99.99,,2013-05-18 04:33:00,
2013-05-17 23:42:00,65.0,59.0,-100.00,ESE,115,6.0,10.0,80,0.00,,,-99.99,,2013-05-18 04:42:00,
2013-05-17 23:52:00,65.0,59.0,-100.00,ESE,115,6.0,10.0,80,0.00,,,-99.99,,2013-05-18 04:52:00,